Time,TemperatureF,DewpointF,PressureIn,WindDirection,WindDirectionDegrees,WindSpeedMPH,WindSpeedGustMPH,Humidity,HourlyPrecipIn,Conditions,Clouds,dailyrainin,SolarRadiationWatts/m^2,SoftwareType,DateUTC
2013-04-26 00:02:00,30.0,25.0,-100.00,SE,130,2.0,5.0,82,0.00,,,0.00,0.000000,,2013-04-26 04:02:00,
2013-04-26 00:12:00,29.0,24.0,-100.00,South,170,1.0,5.0,82,0.00,,,0.00,0.000000,,2013-04-26 04:12:00,
2013-04-26 00:33:00,29.0,24.0,-100.00,South,170,1.0,5.0,82,0.00,,,0.00,0.000000,,2013-04-26 04:33:00,
2013-04-26 00:43:00,29.0,24.0,-100.00,South,170,1.0,5.0,82,0.00,,,0.00,0.000000,,2013-04-26 04:43:00,
2013-04-26 00:53:00,29.0,24.0,-100.00,South,170,1.0,5.0,82,0.00,,,0.00,0.000000,,2013-04-26 04:53:00,
2013-04-26 01:02:00,29.0,24.0,-100.00,South,170,1.0,5.0,82,0.00,,,0.00,0.000000,,2013-04-26 05:02:00,
2013-04-26 01:32:00,28.0,24.0,-100.00,South,181,2.0,4.0,86,0.00,,,0.00,0.000000,,2013-04-26 05:32:00,
2013-04-26 01:42:00,28.0,24.0,-100.00,South,181,2.0,4.0,86,0.00,,,0.00,0.000000,,2013-04-26 05:42:00,
2013-04-26 01:52:00,28.0,24.0,-100.00,South,181,2.0,4.0,86,0.00,,,0.00,0.000000,,2013-04-26 05:52:00,
2013-04-26 02:02:00,28.0,24.0,-100.00,South,181,2.0,4.0,86,0.00,,,0.00,0.000000,,2013-04-26 06:02:00,
2013-04-26 02:11:00,28.0,24.0,-100.00,South,181,2.0,4.0,86,0.00,,,0.00,0.000000,,2013-04-26 06:11:00,
2013-04-26 02:32:00,31.0,23.0,-100.00,SW,226,3.0,6.0,73,0.00,,,-99.99,0.000000,,2013-04-26 06:32:00,
2013-04-26 02:42:00,31.0,23.0,-100.00,SW,226,3.0,6.0,73,0.00,,,-99.99,0.000000,,2013-04-26 06:42:00,
2013-04-26 02:52:00,31.0,23.0,-100.00,SW,226,3.0,6.0,73,0.00,,,-99.99,0.000000,,2013-04-26 06:52:00,
2013-04-26 03:01:00,31.0,23.0,-100.00,SW,226,3.0,6.0,73,0.00,,,-99.99,0.000000,,2013-04-26 07:01:00,
2013-04-26 03:11:00,31.0,23.0,-100.00,SW,226,3.0,6.0,73,0.00,,,-99.99,0.000000,,2013-04-26 07:11:00,
2013-04-26 03:32:00,30.0,24.0,-100.00,SW,218,3.0,5.0,77,0.00,,,0.00,0.000000,,2013-04-26 07:32:00,
2013-04-26 03:42:00,30.0,24.0,-100.00,SW,218,3.0,5.0,77,0.00,,,0.00,0.000000,,2013-04-26 07:42:00,
2013-04-26 03:52:00,30.0,24.0,-100.00,SW,218,3.0,5.0,77,0.00,,,0.00,0.000000,,2013-04-26 07:52:00,
2013-04-26 04:02:00,30.0,24.0,-100.00,SW,218,3.0,5.0,77,0.00,,,0.00,0.000000,,2013-04-26 08:02:00,
2013-04-26 04:11:00,30.0,24.0,-100.00,SW,218,3.0,5.0,77,0.00,,,0.00,0.000000,,2013-04-26 08:11:00,
2013-04-26 04:32:00,29.0,24.0,-100.00,SSW,206,2.0,5.0,80,0.00,,,0.00,0.000000,,2013-04-26 08:32:00,
2013-04-26 04:42:00,29.0,24.0,-100.00,SSW,206,2.0,5.0,80,0.00,,,0.00,0.000000,,2013-04-26 08:42:00,
2013-04-26 04:52:00,29.0,24.0,-100.00,SSW,206,2.0,5.0,80,0.00,,,0.00,0.000000,,2013-04-26 08:52:00,
2013-04-26 05:01:00,29.0,24.0,-100.00,SSW,206,2.0,5.0,80,0.00,,,0.00,0.000000,,2013-04-26 09:01:00,
2013-04-26 05:11:00,29.0,24.0,-100.00,SSW,206,2.0,5.0,80,0.00,,,0.00,0.000000,,2013-04-26 09:11:00,
2013-04-26 05:12:00,29.0,24.0,-100.00,SSW,192,2.0,4.0,80,0.00,,,0.00,0.000000,,2013-04-26 09:12:00,
2013-04-26 05:33:00,29.0,24.0,-100.00,SSW,192,2.0,4.0,80,0.00,,,0.00,0.000000,,2013-04-26 09:33:00,
2013-04-26 05:43:00,29.0,24.0,-100.00,SSW,192,2.0,4.0,80,0.00,,,0.00,0.000000,,2013-04-26 09:43:00,
2013-04-26 05:53:00,29.0,24.0,-100.00,SSW,192,2.0,4.0,80,0.00,,,0.00,0.000000,,2013-04-26 09:53:00,
2013-04-26 06:03:00,29.0,24.0,-100.00,SSW,192,2.0,4.0,80,0.00,,,0.00,0.000000,,2013-04-26 10:03:00,
2013-04-26 06:33:00,31.0,24.0,-100.00,SSW,192,3.0,6.0,74,0.00,,,0.00,0.000000,,2013-04-26 10:33:00,
2013-04-26 06:42:00,31.0,24.0,-100.00,SSW,192,3.0,6.0,74,0.00,,,0.00,0.000000,,2013-04-26 10:42:00,
2013-04-26 06:52:00,31.0,24.0,-100.00,SSW,192,3.0,6.0,74,0.00,,,0.00,0.000000,,2013-04-26 10:52:00,
2013-04-26 07:02:00,31.0,24.0,-100.00,SSW,192,3.0,6.0,74,0.00,,,0.00,0.000000,,2013-04-26 11:02:00,
2013-04-26 07:11:00,31.0,24.0,-100.00,SSW,192,3.0,6.0,74,0.00,,,0.00,0.000000,,2013-04-26 11:11:00,
2013-04-26 07:32:00,33.0,24.0,-100.00,South,187,3.0,7.0,70,0.00,,,0.00,3.000000,,2013-04-26 11:32:00,
2013-04-26 07:42:00,33.0,24.0,-100.00,South,187,3.0,7.0,70,0.00,,,0.00,3.000000,,2013-04-26 11:42:00,
2013-04-26 07:52:00,33.0,24.0,-100.00,South,187,3.0,7.0,70,0.00,,,0.00,3.000000,,2013-04-26 11:52:00,
2013-04-26 08:01:00,33.0,24.0,-100.00,South,187,3.0,7.0,70,0.00,,,0.00,3.000000,,2013-04-26 12:01:00,
2013-04-26 08:11:00,33.0,24.0,-100.00,South,187,3.0,7.0,70,0.00,,,0.00,3.000000,,2013-04-26 12:11:00,
2013-04-26 08:32:00,35.0,25.0,-100.00,South,172,3.0,8.0,67,0.00,,,-99.99,52.000000,,2013-04-26 12:32:00,
2013-04-26 08:42:00,35.0,25.0,-100.00,South,172,3.0,8.0,67,0.00,,,-99.99,52.000000,,2013-04-26 12:42:00,
2013-04-26 08:52:00,35.0,25.0,-100.00,South,172,3.0,8.0,67,0.00,,,-99.99,52.000000,,2013-04-26 12:52:00,
2013-04-26 09:01:00,35.0,25.0,-100.00,South,172,3.0,8.0,67,0.00,,,-99.99,52.000000,,2013-04-26 13:01:00,
2013-04-26 09:11:00,35.0,25.0,-100.00,South,172,3.0,8.0,67,0.00,,,-99.99,52.000000,,2013-04-26 13:11:00,
2013-04-26 09:32:00,36.0,26.0,-100.00,South,185,4.0,8.0,66,0.00,,,0.00,91.000000,,2013-04-26 13:32:00,
2013-04-26 09:42:00,36.0,26.0,-100.00,South,185,4.0,8.0,66,0.00,,,0.00,91.000000,,2013-04-26 13:42:00,
2013-04-26 09:52:00,36.0,26.0,-100.00,South,185,4.0,8.0,66,0.00,,,0.00,91.000000,,2013-04-26 13:52:00,
2013-04-26 10:01:00,36.0,26.0,-100.00,South,185,4.0,8.0,66,0.00,,,0.00,91.000000,,2013-04-26 14:01:00,
2013-04-26 10:11:00,36.0,26.0,-100.00,South,185,4.0,8.0,66,0.00,,,0.00,91.000000,,2013-04-26 14:11:00,
2013-04-26 10:12:00,36.0,33.0,-100.00,South,174,3.0,9.0,89,0.00,,,0.00,81.000000,,2013-04-26 14:12:00,
2013-04-26 10:42:00,36.0,33.0,-100.00,South,174,3.0,9.0,89,0.00,,,0.00,81.000000,,2013-04-26 14:42:00,
2013-04-26 10:52:00,36.0,33.0,-100.00,South,174,3.0,9.0,89,0.00,,,0.00,81.000000,,2013-04-26 14:52:00,
2013-04-26 11:01:00,36.0,33.0,-100.00,South,174,3.0,9.0,89,0.00,,,0.00,81.000000,,2013-04-26 15:01:00,
2013-04-26 11:12:00,36.0,33.0,-100.00,SSE,160,7.0,14.0,90,0.00,,,-99.99,176.000000,,2013-04-26 15:12:00,
2013-04-26 11:33:00,36.0,33.0,-100.00,SSE,160,7.0,14.0,90,0.00,,,-99.99,176.000000,,2013-04-26 15:33:00,
2013-04-26 11:43:00,36.0,33.0,-100.00,SSE,160,7.0,14.0,90,0.00,,,-99.99,176.000000,,2013-04-26 15:43:00,
2013-04-26 11:53:00,36.0,33.0,-100.00,SSE,160,7.0,14.0,90,0.00,,,-99.99,176.000000,,2013-04-26 15:53:00,
2013-04-26 12:03:00,36.0,33.0,-100.00,SSE,160,7.0,14.0,90,0.00,,,-99.99,176.000000,,2013-04-26 16:03:00,
2013-04-26 12:12:00,40.0,34.0,-100.00,SSE,160,9.0,15.0,80,0.00,,,0.00,331.000000,,2013-04-26 16:12:00,
2013-04-26 12:33:00,40.0,34.0,-100.00,SSE,160,9.0,15.0,80,0.00,,,0.00,331.000000,,2013-04-26 16:33:00,
2013-04-26 12:42:00,40.0,34.0,-100.00,SSE,160,9.0,15.0,80,0.00,,,0.00,331.000000,,2013-04-26 16:42:00,
2013-04-26 12:53:00,40.0,34.0,-100.00,SSE,160,9.0,15.0,80,0.00,,,0.00,331.000000,,2013-04-26 16:53:00,
2013-04-26 13:02:00,40.0,34.0,-100.00,SSE,160,9.0,15.0,80,0.00,,,0.00,331.000000,,2013-04-26 17:02:00,
2013-04-26 13:12:00,44.0,35.0,-100.00,South,172,8.0,18.0,71,0.00,,,0.00,606.000000,,2013-04-26 17:12:00,
2013-04-26 13:42:00,44.0,35.0,-100.00,South,172,8.0,18.0,71,0.00,,,0.00,606.000000,,2013-04-26 17:42:00,
2013-04-26 13:52:00,44.0,35.0,-100.00,South,172,8.0,18.0,71,0.00,,,0.00,606.000000,,2013-04-26 17:52:00,
2013-04-26 14:02:00,44.0,35.0,-100.00,South,172,8.0,18.0,71,0.00,,,0.00,606.000000,,2013-04-26 18:02:00,
2013-04-26 15:32:00,55.0,33.0,-100.00,South,173,8.0,19.0,43,-99.99,,,0.00,844.000000,,2013-04-26 19:32:00,
2013-04-26 15:42:00,55.0,33.0,-100.00,South,173,8.0,19.0,43,-99.99,,,0.00,844.000000,,2013-04-26 19:42:00,
2013-04-26 15:52:00,55.0,33.0,-100.00,South,173,8.0,19.0,43,-99.99,,,0.00,844.000000,,2013-04-26 19:52:00,
2013-04-26 16:02:00,55.0,33.0,-100.00,South,173,8.0,19.0,43,-99.99,,,0.00,844.000000,,2013-04-26 20:02:00,
2013-04-26 16:11:00,55.0,33.0,-100.00,South,173,8.0,19.0,43,-99.99,,,0.00,844.000000,,2013-04-26 20:11:00,
2013-04-26 16:42:00,58.0,34.0,-100.00,SW,216,7.0,16.0,40,0.00,,,0.00,424.000000,,2013-04-26 20:42:00,
2013-04-26 16:52:00,58.0,34.0,-100.00,SW,216,7.0,16.0,40,0.00,,,0.00,424.000000,,2013-04-26 20:52:00,
2013-04-26 17:02:00,58.0,34.0,-100.00,SW,216,7.0,16.0,40,0.00,,,0.00,424.000000,,2013-04-26 21:02:00,
2013-04-26 17:11:00,58.0,34.0,-100.00,SW,216,7.0,16.0,40,0.00,,,0.00,424.000000,,2013-04-26 21:11:00,
2013-04-26 17:12:00,61.0,32.0,-100.00,SW,233,9.0,19.0,34,0.00,,,0.00,474.000000,,2013-04-26 21:12:00,
2013-04-26 17:33:00,61.0,32.0,-100.00,SW,233,9.0,19.0,34,0.00,,,0.00,474.000000,,2013-04-26 21:33:00,
2013-04-26 17:42:00,61.0,32.0,-100.00,SW,233,9.0,19.0,34,0.00,,,0.00,474.000000,,2013-04-26 21:42:00,
2013-04-26 17:53:00,61.0,32.0,-100.00,SW,233,9.0,19.0,34,0.00,,,0.00,474.000000,,2013-04-26 21:53:00,
2013-04-26 18:02:00,61.0,32.0,-100.00,SW,233,9.0,19.0,34,0.00,,,0.00,474.000000,,2013-04-26 22:02:00,
2013-04-26 18:33:00,61.0,32.0,-100.00,SW,220,6.0,17.0,34,0.00,,,0.00,477.000000,,2013-04-26 22:33:00,
2013-04-26 18:42:00,61.0,32.0,-100.00,SW,220,6.0,17.0,34,0.00,,,0.00,477.000000,,2013-04-26 22:42:00,
2013-04-26 18:52:00,61.0,32.0,-100.00,SW,220,6.0,17.0,34,0.00,,,0.00,477.000000,,2013-04-26 22:52:00,
2013-04-26 19:02:00,61.0,32.0,-100.00,SW,220,6.0,17.0,34,0.00,,,0.00,477.000000,,2013-04-26 23:02:00,
2013-04-26 19:11:00,61.0,32.0,-100.00,SW,220,6.0,17.0,34,0.00,,,0.00,477.000000,,2013-04-26 23:11:00,
2013-04-26 19:32:00,58.0,36.0,-100.00,SE,134,5.0,14.0,44,0.00,,,0.00,317.000000,,2013-04-26 23:32:00,
2013-04-26 19:42:00,58.0,36.0,-100.00,SE,134,5.0,14.0,44,0.00,,,0.00,317.000000,,2013-04-26 23:42:00,
2013-04-26 19:52:00,58.0,36.0,-100.00,SE,134,5.0,14.0,44,0.00,,,0.00,317.000000,,2013-04-26 23:52:00,
2013-04-26 20:01:00,58.0,36.0,-100.00,SE,134,5.0,14.0,44,0.00,,,0.00,317.000000,,2013-04-27 00:01:00,
2013-04-26 20:11:00,58.0,36.0,-100.00,SE,134,5.0,14.0,44,0.00,,,0.00,317.000000,,2013-04-27 00:11:00,
2013-04-26 20:12:00,54.0,36.0,-100.00,SE,142,5.0,12.0,51,0.00,,,0.00,111.000000,,2013-04-27 00:12:00,
2013-04-26 20:32:00,54.0,36.0,-100.00,SE,142,5.0,12.0,51,0.00,,,0.00,111.000000,,2013-04-27 00:32:00,
2013-04-26 20:42:00,54.0,36.0,-100.00,SE,142,5.0,12.0,51,0.00,,,0.00,111.000000,,2013-04-27 00:42:00,
2013-04-26 20:52:00,54.0,36.0,-100.00,SE,142,5.0,12.0,51,0.00,,,0.00,111.000000,,2013-04-27 00:52:00,
2013-04-26 21:01:00,54.0,36.0,-100.00,SE,142,5.0,12.0,51,0.00,,,0.00,111.000000,,2013-04-27 01:01:00,
2013-04-26 21:42:00,50.0,36.0,-100.00,SSE,154,3.0,8.0,59,0.00,,,0.00,19.000000,,2013-04-27 01:42:00,
2013-04-26 21:52:00,50.0,36.0,-100.00,SSE,154,3.0,8.0,59,0.00,,,0.00,19.000000,,2013-04-27 01:52:00,
2013-04-26 22:01:00,50.0,36.0,-100.00,SSE,154,3.0,8.0,59,0.00,,,0.00,19.000000,,2013-04-27 02:01:00,
2013-04-26 22:11:00,50.0,36.0,-100.00,SSE,154,3.0,8.0,59,0.00,,,0.00,19.000000,,2013-04-27 02:11:00,
2013-04-26 22:42:00,45.0,35.0,-100.00,South,169,3.0,6.0,69,0.00,,,0.00,0.000000,,2013-04-27 02:42:00,
2013-04-26 22:52:00,45.0,35.0,-100.00,South,169,3.0,6.0,69,0.00,,,0.00,0.000000,,2013-04-27 02:52:00,
2013-04-26 23:02:00,45.0,35.0,-100.00,South,169,3.0,6.0,69,0.00,,,0.00,0.000000,,2013-04-27 03:02:00,
2013-04-26 23:11:00,45.0,35.0,-100.00,South,169,3.0,6.0,69,0.00,,,0.00,0.000000,,2013-04-27 03:11:00,
2013-04-26 23:12:00,39.0,34.0,-100.00,SSW,196,0.0,4.0,83,0.00,,,0.00,0.000000,,2013-04-27 03:12:00,
2013-04-26 23:43:00,39.0,34.0,-100.00,SSW,196,0.0,4.0,83,0.00,,,0.00,0.000000,,2013-04-27 03:43:00,
2013-04-26 23:53:00,39.0,34.0,-100.00,SSW,196,0.0,4.0,83,0.00,,,0.00,0.000000,,2013-04-27 03:53:00,